Weather History for Tacoma, WA

Change the Weather History Date:

Tuesday, July 8, 2014

  Actual Average Record
Temperature  
Mean Temperature 70 °F -  
Max Temperature 85 °F 71 °F 93 °F (2010)
Min Temperature 55 °F 50 °F 42 °F (1999)
Cooling Degree Days 5    
Growing Degree Days 20 (Base 50)    
Moisture  
Dew Point 56 °F    
Average Humidity 80    
Maximum Humidity 100    
Minimum Humidity 37    
Precipitation  
Precipitation 0.00 in - - ()
Sea Level Pressure  
Sea Level Pressure 30.05 in    
Wind  
Wind Speed 3 mph (SE)    
Max Wind Speed 12 mph    
Max Gust Speed 18 mph    
Visibility 6 miles    
Events Fog    
Averages and records for this station are not official NWS values.
T = Trace of Precipitation, MM = Missing Value Source: NWS Daily Summary

Daily Weather History Graph

Daily Weather History Graph

Search for Another Location

Airport:

Trip Planner

Search our weather history database for the weather conditions in past years. The results will help you decide how hot, cold, wet, or windy it might be!

Date:

Astronomy

Jul. 08, 2014 Rise Set
Actual Time 5:23 AM PDT 9:06 PM PDT
Civil Twilight 4:44 AM PDT 9:45 PM PDT
Nautical Twilight 3:51 AM PDT 10:37 PM PDT
Astronomical Twilight 2:36 AM PDT 11:51 PM PDT
Moon 5:12 PM PDT (7/8) 2:08 AM PDT (7/8)
Length of Visible Light 17h 01m
Length of Day
15h 43m
Waxing Gibbous, 82% of the Moon is Illuminated
Jul 8
Waxing Gibbous
Jul 12
Full
Jul 18
Last Quarter
Jul 26
New
Aug 3
First Quarter

Hourly Weather History & Observations

Time (PDT) Temp. Heat Index Dew Point Humidity Pressure Visibility Wind Dir Wind Speed Gust Speed Precip Events Conditions
12:58 AM 66.2 °F - 59.5 °F 79% 30.06 in 10.0 mi NNE 2.3 mph - N/A   Clear
1:58 AM 62.4 °F - 57.9 °F 85% 30.06 in 10.0 mi Calm Calm - N/A   Clear
2:58 AM 63.3 °F - 58.8 °F 85% 30.07 in 10.0 mi South 1.2 mph - N/A   Clear
3:58 AM 56.5 °F - 55.9 °F 98% 30.07 in 10.0 mi South 2.3 mph - N/A   Clear
4:03 AM 57.2 °F - 55.4 °F 94% 30.06 in 2.5 mi Calm Calm - N/A   Clear
4:08 AM 57.2 °F - 57.2 °F 100% 30.06 in 1.2 mi South 1.2 mph - N/A   Clear
4:13 AM 57.2 °F - 57.2 °F 100% 30.06 in 1.8 mi South 2.3 mph - N/A   Clear
4:18 AM 57.2 °F - 57.2 °F 100% 30.06 in 2.5 mi South 2.3 mph - N/A   Clear
4:23 AM 57.2 °F - 57.2 °F 100% 30.06 in 1.8 mi SSW 1.2 mph - N/A   Clear
4:28 AM 57.2 °F - 57.2 °F 100% 30.06 in 1.2 mi South 2.3 mph - N/A   Clear
4:38 AM 57.2 °F - 57.2 °F 100% 30.06 in 1.0 mi South 2.3 mph - N/A   Clear
4:43 AM 57.2 °F - 57.2 °F 100% 30.06 in 0.5 mi South 1.2 mph - N/A Fog Fog
4:48 AM 57.2 °F - 55.4 °F 94% 30.06 in 0.5 mi Calm Calm - N/A Fog Fog
4:53 AM 55.4 °F - 55.4 °F 100% 30.06 in 0.5 mi South 1.2 mph - N/A Fog Fog
4:58 AM 56.3 °F - 56.1 °F 99% 30.07 in 0.5 mi South 2.3 mph - N/A Fog Fog
5:03 AM 57.2 °F - 55.4 °F 94% 30.06 in 0.8 mi South 2.3 mph - N/A   Clear
5:13 AM 55.4 °F - 55.4 °F 100% 30.06 in 0.5 mi South 3.5 mph - N/A Fog Fog
5:18 AM 55.4 °F - 55.4 °F 100% 30.06 in 0.2 mi South 3.5 mph - N/A Fog Fog
5:23 AM 55.4 °F - 53.6 °F 94% 30.06 in 0.2 mi South 2.3 mph - N/A Fog Fog
5:28 AM 55.4 °F - 53.6 °F 94% 30.06 in 0.2 mi Calm Calm - N/A Fog Fog
5:33 AM 55.4 °F - 55.4 °F 100% 30.06 in 0.5 mi Calm Calm - N/A Fog Fog
5:38 AM 55.4 °F - 55.4 °F 100% 30.06 in 0.8 mi SSE 2.3 mph - N/A   Clear
5:43 AM 55.4 °F - 55.4 °F 100% 30.06 in 7.0 mi South 2.3 mph - N/A   Clear
5:58 AM 55.4 °F - 55.0 °F 99% 30.07 in 8.0 mi Calm Calm - N/A   Clear
6:13 AM 55.4 °F - 55.4 °F 100% 30.07 in 1.8 mi Calm Calm - N/A   Clear
6:18 AM 55.4 °F - 55.4 °F 100% 30.07 in 0.8 mi Calm Calm - N/A   Clear
6:23 AM 55.4 °F - 55.4 °F 100% 30.07 in 1.2 mi SSE 1.2 mph - N/A   Clear
6:28 AM 57.2 °F - 57.2 °F 100% 30.07 in 5.0 mi South 2.3 mph - N/A   Clear
6:58 AM 59.7 °F - 59.4 °F 99% 30.08 in 10.0 mi ESE 1.2 mph - N/A   Clear
7:58 AM 65.1 °F - 59.2 °F 81% 30.08 in 10.0 mi Variable 1.2 mph - 0.00 in   Clear
8:58 AM 70.5 °F - 58.8 °F 66% 30.08 in 10.0 mi NE 4.6 mph - N/A   Clear
9:58 AM 73.4 °F - 59.2 °F 61% 30.08 in 10.0 mi NNE 9.2 mph - N/A   Clear
10:58 AM - - - N/A% - 10.0 mi NE 9.2 mph - N/A   Clear
11:58 AM 78.8 °F - 57.2 °F 47% 30.07 in 10.0 mi North 11.5 mph 17.3 mph N/A   Clear
12:58 PM 80.1 °F 80.2 °F 55.9 °F 43% 30.06 in 10.0 mi North 11.5 mph - N/A   Clear
1:58 PM 82.6 °F 82.0 °F 56.1 °F 40% 30.05 in 10.0 mi NE 10.4 mph 18.4 mph N/A   Clear
2:58 PM 83.5 °F 82.6 °F 56.1 °F 39% 30.04 in 10.0 mi NNE 9.2 mph 17.3 mph N/A   Clear
3:58 PM 85.1 °F 83.9 °F 56.1 °F 37% 30.03 in 10.0 mi North 9.2 mph - N/A   Clear
4:58 PM 85.1 °F 83.9 °F 56.1 °F 37% 30.01 in 10.0 mi NNE 6.9 mph - N/A   Clear
5:58 PM 84.7 °F 83.6 °F 55.4 °F 37% 30.00 in 10.0 mi NNE 9.2 mph - N/A   Clear
6:58 PM 83.7 °F 82.7 °F 55.2 °F 38% 29.99 in 10.0 mi NNE 10.4 mph - N/A   Clear
7:58 PM 81.7 °F 81.2 °F 54.9 °F 40% 29.98 in 10.0 mi NNE 6.9 mph - N/A   Clear
8:58 PM 78.4 °F - 56.7 °F 47% 29.98 in 10.0 mi ENE 3.5 mph - N/A   Clear
9:58 PM 75.2 °F - 56.8 °F 53% 30.00 in 10.0 mi NW 5.8 mph - N/A   Clear
10:58 PM 72.0 °F - 57.6 °F 60% 30.00 in 10.0 mi NW 4.6 mph - N/A   Clear
11:58 PM 69.3 °F - 58.3 °F 68% 30.02 in 10.0 mi WNW 5.8 mph - N/A   Clear